Location: Arthez
(43.0833°N, 0.2500°W)
Time: 00:45:45
(UTC+00:00)

NOSS 3-1 (A) - Pass Details

Date: 31 May 2022
Orbit: 711 x 1501 km, 63.4° (Epoch: 21 May)

Event Time Altitude Azimuth Distance (km) Brightness Sun altitude
Rises 20:58:58 0° 325° (NW) 3,778 8.6 -12.9°
Reaches altitude 10° 21:01:55 10° 338° (NNW) 2,952 7.2 -13.3°
Maximum altitude 21:07:51 27° 34° (NE) 2,176 5.5 -14.0°
Drops below altitude 10° 21:14:38 10° 89° (E) 3,417 6.0 -14.8°
Enters shadow 21:16:39 - 96° (E) 3,988 6.3 -15.0°
